Location: Andershausen
(51.8462°N, 9.8595°E)
Time: 06:08:57
(UTC+00:00)

SL-16 R/B - Pass Details

Date: 18 November 2025
Orbit: 985 x 1006 km, 99.8° (Epoch: 11 December)

Event Time Altitude Azimuth Distance (km) Brightness Sun altitude
Rises 16:43:07 0° 15° (NNE) 3,749 5.3 -11.7°
Reaches altitude 10° 16:45:38 10° 13° (NNE) 2,794 4.6 -12.1°
Maximum altitude 16:51:49 64° 293° (WNW) 1,108 3.0 -13.0°
Drops below altitude 10° 16:57:58 10° 214° (SW) 2,769 5.6 -14.0°
Sets 17:00:27 0° 211° (SSW) 3,712 6.2 -14.3°
